Location: �perlecques
(50.8057°N, 2.1521°E)
Time: 07:57:41
(UTC+00:00)

STARS - Pass Details

Date: 02 April 2023
Orbit: 616 x 630 km, 98.1° (Epoch: 03 June)

Event Time Altitude Azimuth Distance (km) Brightness Sun altitude
Rises 22:34:24 0° 21° (NNE) 2,917 ? -31.5°
Reaches altitude 10° 22:36:46 10° 31° (NNE) 2,008 ? -31.6°
Enters shadow 22:37:37 15° 37° (NE) 1,709 ? -31.7°
